Regional Weather Roundup
Issued by NWS

Home | Current Version | Previous Version | Text Only | Print | Product List | Glossary On
Versions: 1 2 3 4 5 6 7 8 9 10 11 12 13 14 15 16 17 18 19 20 21 22 23 24 25 26 27 28 29 30 31 32 33 34 35 36 37 38 39 40 41 42 43 44 45 46 47 48 49 50
000
ASUS43 KMPX 050610
RWRMN
WEATHER ROUNDUP FOR MINNESOTA
NATIONAL WEATHER SERVICE TWIN CITIES/CHANHASSEN MN
1200 AM CST MON DEC 05 2016


NOTE: "FAIR" INDICATES FEW OR NO CLOUDS BELOW 12,000 FEET WITH NO
SIGNIFICANT WEATHER AND/OR OBSTRUCTIONS TO VISIBILITY. N/A MEANS
CURRENT SKY AND/OR WEATHER CONDITIONS ARE NOT AVAILABLE.

MNZ060>063-068>070-050700-
   Twin Cities Metro

CITY           SKY/WX    TMP DP  RH WIND       PRES   REMARKS
TWIN CITIES    CLEAR     33  28  81 SW7       29.79R WCI  27
6HR MIN TEMP:  33; 6HR MAX TEMP:  38;

ST PAUL        CLEAR     33  29  85 CALM      29.80R
CRYSTAL        CLEAR     33  26  75 SW7       29.76S WCI  27
BLAINE         CLEAR     36  32  87 SW7       29.76S
LAKEVILLE      CLEAR     28  28 100 CALM      29.79S
EDEN PRAIRIE   CLEAR     30  28  92 SW6       29.77S WCI  24
6HR MIN TEMP:  30; 6HR MAX TEMP:  38;

SOUTH ST PAUL  CLEAR     32  30  91 CALM      29.79R
LAKE ELMO      FAIR      32  30  93 S8        29.79R WCI  25
$$
MNZ001>005-007-008-013>017-022>024-027-028-050700-
   Northwest Minnesota

CITY           SKY/WX    TMP DP  RH WIND       PRES   REMARKS
BEMIDJI        CLOUDY    28  26  91 W10       29.66R WCI  19
HALLOCK        CLOUDY    30  28  93 W8        29.66R WCI  23
ROSEAU         CLOUDY    30  27  86 W7        29.62S WCI  23
WARROAD        CLOUDY    30  27  86 W9        29.62R WCI  22
THIEF RVR FALL CLOUDY    28  26  92 W12       29.67S WCI  18
CROOKSTON      CLOUDY    28  27  93 W6        29.70S WCI  22
FOSSTON        CLOUDY    27  25  93 W8        29.68R WCI  18
DETROIT LAKES  PTCLDY    30  28  93 W3        29.69R
MOORHEAD       CLEAR     27  25  93 W3        29.72R
PARK RAPIDS    CLOUDY    30  25  81 W6        29.67R WCI  24
$$
MNZ006-009>011-018-025>026-050700-
   North Central Minnesota

CITY           SKY/WX    TMP DP  RH WIND       PRES   REMARKS
BAUDETTE       LGT SNOW  30  27  88 W7        29.61R FOG     WCI  23
FLAG ISLAND    LGT SNOW  30  28  93 SW7       29.58S WCI  23
INTL FALLS     CLOUDY    30  27  88 SW7       29.61S FOG     WCI  23
6HR MIN TEMP:  30; 6HR MAX TEMP:  31; 6HR PCP:  0.04;

WASKISH        CLOUDY    30  28  93 W12       29.64R WCI  21
BIG FORK       FLURRIES  30  27  86 SW3       29.64R
LONGVILLE      CLOUDY    30  27  86 W7        29.67R WCI  23
GRAND RAPIDS   CLOUDY    31  28  89 W9        29.67R WCI  23
CRANE LAKE     CLOUDY    28  28 100 CALM      29.63S FOG
ORR            MIX PCPN  28  27  93 CALM      29.60R
COOK           CLOUDY    30  28  93 W7        29.63R WCI  23
$$
MNZ012-019>021-037-050700-
   Northeast Minnesota

CITY           SKY/WX    TMP DP  RH WIND       PRES   REMARKS
DULUTH         CLOUDY    31  29  92 W12       29.64S WCI  22
6HR MIN TEMP:  31; 6HR MAX TEMP:  33; 6HR PCP: TRACE;

ELY            CLOUDY    30  30 100 SW3       29.60S
HIBBING        CLOUDY    29  27  92 VRB5      29.64R WCI  24
EVELETH        CLOUDY    32  30  91 W8        29.64R WCI  25
DULUTH HARBOR  CLOUDY    36  30  80 SW9       29.69R
TWO HARBORS    MOCLDY    36  30  80 W8        29.62S
SILVER BAY     MIX PCPN  34  34 100 CALM      29.61S
GRAND MARAIS     N/A     33  32  96 CALM      29.64F
G MARAIS ARPRT MIX PCPN  28  25  86 CALM      29.60S
$$
MNZ029>031-032-039>041-046>048-054>057-064-050700-
   West Central Minnesota

CITY           SKY/WX    TMP DP  RH WIND       PRES   REMARKS
FERGUS FALLS   CLEAR     27  27 100 CALM      29.75S
WHEATON        CLEAR    N/A N/A N/A S5        29.74S
MORRIS         CLEAR     28  27  93 CALM      29.73R
ALEXANDRIA     CLEAR     27  27 100 SW8       29.72R WCI  19
ELBOW LAKE     FAIR      25  25  99 CALM      29.73R
WADENA         CLEAR     27  27 100 SW5       29.68S WCI  21
GLENWOOD       CLEAR     28  27  93 SW8       29.72F WCI  20
APPLETON       CLEAR     28  27  93 S5        29.75R WCI  23
BENSON         CLEAR     25  23  93 SW3       29.75R
ORTONVILLE     CLEAR     30  27  86 CALM      29.73R
MADISON        CLEAR     34  30  86 S3        29.75R
WILLMAR        FAIR      32  30  93 SW3       29.77R
$$
MNZ033>034-036-042>043-049>051-058-059-050700-
   Central Minnesota

CITY           SKY/WX    TMP DP  RH WIND       PRES   REMARKS
ST CLOUD       CLEAR     29  28  96 SW8       29.74R WCI  21
6HR MIN TEMP:  29; 6HR MAX TEMP:  34;

PAYNESVILLE    CLEAR     32  32 100 SW6       29.75S WCI  26
AITKIN         CLOUDY    36  27  69 W5        29.68R
PINE RIVER     CLOUDY    30  28  93 CALM      29.72S
BRAINERD       CLOUDY    33  29  85 W8        29.70R WCI  26
STAPLES        CLEAR     27  27 100 SW5       29.69S WCI  21
LONG PRAIRIE   FAIR      28  28 100 S7        29.72R WCI  21
LITTLE FALLS   CLEAR     30  28  93 CALM      29.72S
LITCHFIELD     CLEAR     30  28  93 CALM      29.77R
BUFFALO        CLEAR     32  28  87 S6        29.78R WCI  26
MAPLE LAKE     CLEAR     32  31  95 SW6       29.77R WCI  26
$$
MNZ037-044-045-052-053-050700-
   East Central Minnesota

CITY           SKY/WX    TMP DP  RH WIND       PRES   REMARKS
PRINCETON      CLEAR     34  30  86 CALM      29.74F
MORA           CLOUDY    34  30  86 SW6       29.74S WCI  29
CAMBRIDGE      PTCLDY    36  28  75 CALM      29.73S
RUSH CITY      CLOUDY    34  30  86 SW7       29.74S WCI  28
MOOSE LAKE     CLOUDY    32  30  93 W8        29.68R WCI  25
HINCKLEY       CLOUDY    34  32  93 SW8G17    29.72S WCI  27
CLOQUET        CLOUDY    32  28  86 SW7       29.67R WCI  26
MCGREGOR       CLOUDY    32  30  93 W6        29.69R WCI  26
$$
MNZ071>073-080-081-089-090-097-098-050700-
   Southwest Minnesota

CITY           SKY/WX    TMP DP  RH WIND       PRES   REMARKS
MONTEVIDEO     CLEAR     27  25  93 SW5       29.77R WCI  21
GRANITE FALLS  CLEAR     30  28  94 S6        29.78R WCI  24
CANBY          CLEAR     35  29  81 SW12      29.76R WCI  26
MARSHALL       CLEAR     36  28  73 SW10      29.77R
REDWOOD FALLS  CLEAR     30  26  85 S7        29.77F WCI  23
OLIVIA         CLEAR     30  28  93 S5        29.76F WCI  25
PIPESTONE      PTCLDY    32  28  86 S5        29.77R WCI  27
WINDOM         CLEAR     32  28  86 CALM      29.79S
WORTHINGTON    CLEAR     32  29  88 S9        29.80S WCI  24
JACKSON        CLEAR     30  28  93 S7        29.80F WCI  23
TRACY          CLEAR     35  31  85 SW15      29.78R WCI  25
SLAYTON        PTCLDY    30  28  94 S6        29.79R WCI  24
$$
MNZ065>067-074>077-082>085-091>093-050700-
   South Central Minnesota

CITY           SKY/WX    TMP DP  RH WIND       PRES   REMARKS
MANKATO        CLEAR     31  30  96 S6        29.81S WCI  25
NEW ULM        CLEAR     30  28  93 S5        29.79S WCI  25
ST JAMES       CLEAR     30  30 100 S7        29.81S WCI  23
FAIRMONT       CLEAR     33  30  88 SW10      29.81F WCI  25
GLENCOE        CLEAR     32  32 100 S3        29.77S
FARIBAULT      CLEAR     30  30 100 S5        29.81S WCI  25
OWATONNA       CLEAR     30  28  93 S5        29.81S WCI  25
WASECA         CLEAR     32  30  93 SW8       29.82S WCI  25
ALBERT LEA     CLEAR     36  36 100 SW8       29.82S
$$
MNZ078>079-086>088-094>096-050700-
   Southeast Minnesota

CITY           SKY/WX    TMP DP  RH WIND       PRES   REMARKS
ROCHESTER      CLOUDY    32  32 100 SW13      29.81S FOG     WCI  22
6HR MIN TEMP:  31; 6HR MAX TEMP:  34;

RED WING       CLEAR     34  30  86 W3        29.79F
STANTON        CLEAR     32  30  93 S5        29.79S WCI  27
DODGE CENTER   PTCLDY    30  28  93 SW8       29.80F WCI  23
WINONA         PTCLDY    36  34  93 W3        29.82F
PRESTON        CLOUDY    32  32  98 SW9       29.83S FOG     WCI  24
$$
ABBREVIATIONS USED IN REMARKS
   TC - TEMPERATURES IN CELSIUS
  WCI - WIND CHILL INDEX
   HX - HEAT INDEX
  VSB - VISIBILITY
$$




USA.gov is the U.S. government's official web portal to all federal, state and local government web resources and services.